Precipitable_Water
0.23 0.25 0.30 0.31 0.33 0.33 0.30 0.28 0.23 0.21 0.19 0.26 0.34 0.37 0.36 0.37 0.39 0.40 0.43 0.48 0.51 0.52 0.55 0.57 0.59 0.61 0.62 0.63 0.63 0.65 0.65 0.66 0.65 0.66 0.67 0.65 0.63 0.61 0.58 0.57 0.57 0.57 0.55 0.48
0.19 0.23 0.26 0.27 0.34 0.36 0.36 0.32 0.32 0.31 0.31 0.39 0.41 0.41 0.43 0.44 0.44 0.45 0.48 0.51 0.54 0.55 0.56 0.58 0.60 0.61 0.63 0.64 0.65 0.66 0.64 0.64 0.65 0.66 0.66 0.64 0.62 0.59 0.57 0.57 0.57 0.55 0.50 0.44
0.15 0.26 0.27 0.23 0.29 0.35 0.35 0.36 0.37 0.32 0.37 0.42 0.39 0.39 0.42 0.46 0.47 0.48 0.52 0.55 0.56 0.57 0.58 0.59 0.60 0.62 0.61 0.62 0.64 0.64 0.64 0.65 0.67 0.67 0.66 0.64 0.61 0.58 0.57 0.56 0.55 0.51 0.46 0.44
0.17 0.24 0.16 0.25 0.31 0.35 0.31 0.32 0.35 0.36 0.40 0.42 0.41 0.44 0.46 0.48 0.49 0.51 0.53 0.57 0.61 0.63 0.62 0.64 0.65 0.64 0.64 0.64 0.64 0.64 0.65 0.66 0.67 0.66 0.64 0.62 0.59 0.57 0.56 0.54 0.51 0.47 0.45 0.48
0.20 0.20 0.22 0.24 0.26 0.26 0.27 0.26 0.32 0.33 0.38 0.42 0.45 0.49 0.48 0.51 0.52 0.53 0.54 0.58 0.63 0.68 0.66 0.66 0.66 0.67 0.66 0.65 0.67 0.67 0.66 0.66 0.66 0.65 0.63 0.60 0.58 0.56 0.54 0.51 0.47 0.47 0.54 0.47
0.22 0.17 0.14 0.20 0.29 0.36 0.35 0.22 0.32 0.31 0.33 0.38 0.44 0.41 0.48 0.56 0.55 0.55 0.58 0.62 0.64 0.68 0.71 0.68 0.69 0.70 0.68 0.67 0.67 0.66 0.67 0.67 0.67 0.66 0.63 0.59 0.56 0.54 0.52 0.49 0.51 0.57 0.48 0.44
0.20 0.18 0.19 0.24 0.30 0.35 0.21 0.21 0.30 0.33 0.34 0.37 0.37 0.42 0.50 0.55 0.54 0.57 0.59 0.60 0.62 0.62 0.63 0.67 0.67 0.68 0.67 0.67 0.65 0.67 0.67 0.66 0.64 0.62 0.59 0.57 0.55 0.52 0.51 0.56 0.56 0.50 0.44 0.40
0.18 0.16 0.15 0.26 0.27 0.21 0.24 0.28 0.30 0.32 0.35 0.36 0.41 0.45 0.50 0.51 0.49 0.55 0.57 0.59 0.59 0.59 0.60 0.63 0.65 0.66 0.65 0.63 0.65 0.66 0.64 0.63 0.61 0.58 0.55 0.53 0.51 0.53 0.59 0.56 0.49 0.44 0.40 0.37
0.18 0.18 0.24 0.25 0.25 0.26 0.27 0.27 0.29 0.32 0.35 0.37 0.40 0.43 0.48 0.49 0.49 0.52 0.54 0.56 0.58 0.57 0.57 0.60 0.62 0.63 0.62 0.64 0.65 0.64 0.63 0.60 0.58 0.56 0.54 0.53 0.56 0.58 0.54 0.50 0.44 0.39 0.36 0.34
0.18 0.21 0.20 0.25 0.27 0.25 0.26 0.27 0.29 0.31 0.35 0.38 0.39 0.43 0.46 0.48 0.48 0.49 0.52 0.54 0.57 0.57 0.56 0.56 0.59 0.61 0.62 0.64 0.64 0.62 0.60 0.58 0.57 0.55 0.55 0.58 0.57 0.53 0.48 0.43 0.39 0.36 0.33 0.31
0.15 0.18 0.19 0.24 0.22 0.22 0.24 0.25 0.27 0.29 0.33 0.37 0.39 0.43 0.46 0.47 0.47 0.50 0.51 0.52 0.54 0.56 0.57 0.57 0.60 0.61 0.62 0.62 0.62 0.59 0.57 0.56 0.57 0.56 0.55 0.53 0.51 0.47 0.44 0.42 0.37 0.34 0.32 0.30
0.12 0.16 0.17 0.17 0.19 0.20 0.21 0.22 0.24 0.26 0.28 0.33 0.37 0.38 0.42 0.43 0.46 0.48 0.48 0.50 0.53 0.55 0.56 0.57 0.58 0.59 0.60 0.60 0.58 0.57 0.55 0.54 0.53 0.52 0.51 0.48 0.45 0.42 0.43 0.40 0.38 0.36 0.34 0.32
0.14 0.17 0.17 0.16 0.18 0.18 0.18 0.20 0.22 0.25 0.27 0.28 0.33 0.36 0.39 0.40 0.42 0.46 0.48 0.48 0.49 0.51 0.52 0.53 0.54 0.54 0.56 0.56 0.56 0.54 0.51 0.50 0.50 0.49 0.46 0.43 0.40 0.37 0.34 0.36 0.36 0.34 0.33 0.31
0.17 0.16 0.14 0.15 0.15 0.17 0.18 0.19 0.21 0.23 0.26 0.27 0.30 0.34 0.36 0.38 0.39 0.41 0.44 0.47 0.47 0.48 0.48 0.49 0.49 0.50 0.52 0.53 0.52 0.50 0.49 0.48 0.46 0.44 0.41 0.39 0.36 0.34 0.32 0.29 0.27 0.28 0.31 0.30
0.16 0.17 0.16 0.16 0.16 0.16 0.18 0.18 0.18 0.20 0.22 0.24 0.27 0.29 0.33 0.34 0.36 0.38 0.40 0.43 0.45 0.44 0.44 0.45 0.44 0.45 0.49 0.49 0.47 0.46 0.46 0.44 0.42 0.40 0.38 0.36 0.33 0.31 0.29 0.28 0.27 0.27 0.27 0.27
0.17 0.17 0.16 0.16 0.16 0.16 0.17 0.17 0.17 0.18 0.20 0.22 0.23 0.25 0.28 0.31 0.34 0.35 0.37 0.39 0.38 0.38 0.41 0.42 0.41 0.43 0.45 0.45 0.44 0.43 0.43 0.42 0.40 0.38 0.36 0.34 0.32 0.30 0.28 0.27 0.27 0.26 0.25 0.25
0.16 0.15 0.15 0.15 0.16 0.17 0.17 0.18 0.18 0.18 0.20 0.21 0.22 0.23 0.25 0.26 0.29 0.31 0.33 0.35 0.37 0.37 0.39 0.39 0.39 0.41 0.41 0.41 0.40 0.39 0.39 0.39 0.38 0.37 0.35 0.33 0.31 0.30 0.29 0.27 0.25 0.24 0.24 0.24
0.19 0.18 0.18 0.17 0.17 0.18 0.18 0.19 0.19 0.20 0.20 0.21 0.22 0.23 0.23 0.24 0.25 0.27 0.30 0.31 0.33 0.35 0.36 0.37 0.39 0.39 0.38 0.38 0.38 0.37 0.37 0.36 0.35 0.34 0.33 0.32 0.30 0.29 0.27 0.25 0.24 0.22 0.21 0.22
0.20 0.19 0.19 0.19 0.19 0.19 0.19 0.20 0.20 0.21 0.21 0.22 0.22 0.21 0.22 0.23 0.24 0.26 0.29 0.29 0.29 0.30 0.32 0.35 0.36 0.36 0.35 0.35 0.35 0.35 0.34 0.33 0.33 0.32 0.31 0.30 0.28 0.27 0.25 0.23 0.22 0.20 0.19 0.18
0.19 0.20 0.20 0.20 0.20 0.20 0.19 0.20 0.21 0.21 0.22 0.22 0.22 0.22 0.22 0.22 0.24 0.25 0.27 0.26 0.29 0.29 0.32 0.33 0.34 0.33 0.33 0.33 0.33 0.32 0.32 0.31 0.30 0.29 0.28 0.26 0.25 0.23 0.22 0.21 0.20 0.19 0.18 0.17
0.19 0.19 0.19 0.19 0.19 0.20 0.20 0.20 0.20 0.20 0.21 0.22 0.21 0.21 0.21 0.22 0.23 0.23 0.23 0.23 0.27 0.29 0.30 0.31 0.31 0.30 0.31 0.31 0.30 0.30 0.29 0.28 0.27 0.26 0.25 0.23 0.22 0.20 0.20 0.19 0.18 0.18 0.17 0.17
0.18 0.18 0.19 0.19 0.19 0.19 0.20 0.20 0.20 0.20 0.20 0.21 0.21 0.21 0.21 0.21 0.22 0.23 0.24 0.24 0.26 0.28 0.27 0.28 0.29 0.29 0.29 0.29 0.28 0.27 0.27 0.26 0.24 0.23 0.21 0.20 0.19 0.19 0.18 0.18 0.17 0.17 0.17 0.16
0.18 0.18 0.18 0.18 0.18 0.18 0.19 0.20 0.20 0.20 0.19 0.20 0.20 0.20 0.20 0.21 0.21 0.20 0.20 0.24 0.26 0.26 0.26 0.27 0.28 0.28 0.27 0.26 0.26 0.25 0.24 0.23 0.21 0.20 0.19 0.18 0.18 0.18 0.17 0.17 0.17 0.17 0.17 0.16
0.17 0.17 0.18 0.18 0.18 0.18 0.17 0.19 0.19 0.19 0.20 0.20 0.20 0.20 0.20 0.20 0.21 0.22 0.24 0.26 0.26 0.25 0.25 0.26 0.26 0.25 0.24 0.23 0.22 0.21 0.21 0.20 0.19 0.19 0.18 0.18 0.17 0.17 0.17 0.17 0.17 0.17 0.16 0.15
0.16 0.17 0.17 0.17 0.16 0.17 0.17 0.18 0.19 0.19 0.19 0.19 0.19 0.20 0.21 0.21 0.20 0.21 0.22 0.23 0.23 0.23 0.23 0.24 0.24 0.23 0.22 0.21 0.20 0.20 0.19 0.18 0.18 0.18 0.17 0.17 0.17 0.17 0.17 0.17 0.16 0.15 0.15 0.14
0.15 0.15 0.16 0.16 0.16 0.17 0.17 0.18 0.17 0.18 0.18 0.18 0.18 0.19 0.20 0.20 0.21 0.21 0.21 0.21 0.21 0.21 0.21 0.21 0.20 0.20 0.20 0.20 0.19 0.19 0.18 0.18 0.18 0.17 0.17 0.17 0.16 0.16 0.16 0.15 0.15 0.14 0.14 0.14
0.15 0.16 0.15 0.15 0.16 0.16 0.17 0.17 0.16 0.16 0.17 0.17 0.17 0.18 0.19 0.19 0.20 0.20 0.19 0.19 0.20 0.20 0.20 0.20 0.19 0.19 0.18 0.18 0.18 0.18 0.18 0.18 0.17 0.17 0.16 0.16 0.16 0.16 0.15 0.14 0.14 0.14 0.13 0.13
Wind_Speed
18 20 20 22 22 37 38 40 41 41 39 33 29 27 28 26 26 25 26 25 25 27 26 26 27 29 29 30 32 32 33 33 33 32 31 30 29 29 28 28 27 27 28 29
12 16 21 23 20 25 33 32 34 30 29 26 28 26 24 24 23 22 22 23 25 27 27 27 28 28 29 30 31 31 31 32 32 31 30 30 29 29 28 27 27 27 28 29
10 10 13 12 13 16 11 12 23 24 25 26 27 26 25 23 21 21 23 23 23 24 25 26 27 28 29 29 30 30 30 31 31 31 30 29 29 28 28 27 27 27 28 30
9 8 11 13 4 8 10 6 8 14 19 23 28 29 24 22 23 21 22 24 25 24 23 24 26 27 27 28 28 29 29 30 30 30 29 29 28 28 27 27 27 27 29 30
5 4 9 2 11 17 17 9 8 12 14 18 23 27 28 22 24 26 26 27 27 26 26 25 26 26 27 27 27 28 29 29 30 29 29 28 28 28 27 27 27 28 29 30
3 1 4 7 10 9 22 12 8 12 15 15 15 18 22 24 26 26 26 25 26 28 29 27 28 29 28 27 27 28 28 29 29 29 29 28 28 28 27 27 28 29 29 28
3 2 4 11 8 7 9 10 12 12 12 13 15 20 24 22 22 23 24 24 25 26 28 28 29 29 29 28 28 28 28 28 28 28 28 28 28 27 27 28 28 28 26 25
3 1 3 14 4 5 3 8 9 11 9 12 14 15 18 21 22 22 22 22 23 24 26 28 29 30 30 29 28 28 28 27 27 27 27 27 27 27 27 27 26 24 23 23
4 5 5 12 3 3 8 11 13 14 12 12 13 12 12 15 18 19 22 23 23 23 24 26 28 30 29 29 28 28 28 27 27 27 26 26 26 27 26 23 22 22 21 21
9 6 15 8 5 13 14 13 13 14 13 13 13 12 11 12 13 15 17 19 22 24 24 25 26 27 29 29 29 28 27 27 26 26 26 26 25 23 22 21 20 19 19 20
13 12 15 10 20 20 18 17 16 14 12 12 11 12 10 11 14 14 14 15 17 20 21 22 24 25 27 28 28 27 26 25 24 24 23 22 22 21 20 19 18 18 18 19
14 19 18 23 24 23 21 20 20 18 16 14 12 12 11 12 14 15 17 16 16 17 18 18 20 21 23 24 24 24 24 24 23 23 22 22 21 20 19 18 18 17 17 19
17 21 23 25 24 23 23 23 21 20 19 17 15 13 12 13 14 14 15 15 16 17 19 20 20 20 22 23 24 24 23 23 22 22 22 21 21 20 18 17 16 16 17 18
18 20 19 20 23 25 23 23 22 21 19 17 16 15 14 13 13 14 16 17 17 17 18 19 19 19 21 22 22 22 22 22 21 21 21 21 21 19 19 18 17 17 17 18
17 18 20 22 22 23 23 22 21 20 19 18 17 17 16 16 15 15 15 18 19 19 18 19 19 19 21 21 21 21 22 22 22 22 20 20 20 19 17 17 16 16 17 18
18 18 18 18 19 20 21 21 20 21 20 20 19 18 17 17 17 17 17 18 19 20 21 20 19 19 19 20 20 20 22 22 22 21 21 20 20 18 18 17 17 17 17 19
15 18 19 18 17 17 17 19 20 20 20 20 19 18 18 17 17 16 16 17 18 19 21 20 19 19 20 20 20 20 21 21 21 21 20 20 19 18 17 17 17 17 18 19
14 15 16 17 17 16 14 13 14 16 17 18 17 17 16 16 16 16 15 15 14 16 19 19 18 18 19 19 19 18 18 18 19 19 18 18 18 17 17 16 16 16 17 18
13 14 15 16 16 16 14 12 9 9 11 13 14 15 14 14 14 14 14 14 14 14 16 18 17 17 17 17 17 17 16 16 16 16 17 16 16 15 15 15 14 15 16 18
12 13 14 14 15 15 14 12 9 6 5 6 8 10 12 13 13 14 14 13 13 13 14 15 15 16 16 16 16 16 16 16 15 15 14 14 13 14 14 13 14 16 18 20
12 12 13 13 13 13 13 12 9 7 5 3 3 5 8 11 12 13 15 15 15 13 12 12 14 14 15 15 15 16 15 15 15 14 14 13 13 13 13 14 16 18 20 22
12 12 12 12 12 12 12 11 10 8 6 4 2 2 5 7 9 11 13 14 15 14 15 14 14 14 14 14 14 15 15 14 14 13 13 13 13 13 14 15 17 19 21 23
13 12 12 11 11 11 10 10 9 8 6 5 3 2 2 4 6 9 11 13 14 14 15 14 13 14 14 15 14 14 14 14 13 13 13 13 14 14 16 17 19 20 22 23
15 14 13 12 12 11 10 10 8 7 6 5 4 3 2 3 4 5 8 10 10 12 13 14 13 13 14 14 14 14 14 14 14 14 14 15 15 16 17 18 20 21 23 25
16 16 15 15 14 12 12 10 9 8 6 5 4 3 1 1 3 4 5 7 9 10 10 11 13 13 14 14 14 15 15 15 15 15 15 15 16 17 18 20 21 23 24 25
18 17 16 15 15 14 13 11 10 9 8 6 5 5 4 4 5 5 6 7 8 9 10 11 12 13 13 14 15 15 15 16 16 16 16 17 18 19 20 21 23 24 25 26
17 16 16 15 15 14 14 13 12 11 10 9 8 7 7 7 7 7 8 9 10 11 11 12 12 13 14 14 15 15 15 16 16 17 17 18 20 21 22 23 24 25 26 27
Wind_Direction
244 244 241 233 232 226 225 227 229 234 236 241 248 244 247 253 255 248 239 235 231 227 227 226 224 222 220 220 220 220 221 221 222 223 227 231 235 239 242 248 255 264 272 280
251 255 236 231 236 223 227 230 234 231 230 246 244 245 247 248 250 250 234 232 230 228 227 226 223 220 218 219 219 218 218 219 220 223 227 232 236 239 243 249 257 266 274 281
249 267 218 206 255 233 198 226 232 232 237 245 243 246 247 250 246 243 233 228 227 224 221 221 219 216 215 215 216 217 218 219 221 225 229 233 237 240 244 250 259 268 275 282
252 276 216 200 255 171 165 195 228 237 247 247 247 244 231 239 243 243 242 234 229 223 221 218 215 214 213 214 216 217 219 220 223 226 230 234 237 241 245 253 261 270 277 283
240 298 185 345 266 237 227 216 265 259 258 256 255 234 230 248 246 243 244 241 230 225 222 217 214 214 214 216 218 220 221 222 225 227 231 234 238 242 248 255 263 271 278 282
252 69 127 324 289 243 196 201 297 271 265 262 258 229 237 253 245 244 243 238 230 225 222 220 220 218 219 220 222 222 224 225 226 230 233 236 240 244 251 258 265 272 277 281
321 147 128 4 351 193 179 235 285 286 271 267 250 240 247 248 242 240 236 234 229 225 222 222 220 219 219 221 225 225 225 226 229 232 235 239 243 248 254 260 266 271 274 278
290 267 209 359 27 127 246 272 284 298 281 264 262 260 246 241 239 236 231 227 226 224 224 223 222 221 221 226 226 224 224 226 230 235 238 241 245 250 256 260 263 266 271 279
284 264 289 325 123 345 314 301 299 294 292 280 267 264 244 236 235 233 232 229 228 224 222 223 223 223 223 224 222 223 224 228 232 236 240 242 246 251 255 253 257 264 270 280
291 264 310 280 282 319 313 306 306 299 284 286 275 265 251 237 232 228 229 227 223 222 223 225 225 223 221 220 221 223 226 229 233 237 241 245 244 243 245 250 256 263 272 281
270 283 300 232 306 305 301 300 297 299 287 284 274 266 259 244 236 232 227 220 220 219 220 220 220 218 217 219 221 224 226 228 231 234 235 235 237 239 243 248 255 264 273 282
274 291 280 284 291 294 293 294 293 290 285 282 278 269 264 248 240 233 231 229 223 221 216 212 210 211 215 215 215 218 221 225 229 230 232 231 233 234 239 246 256 266 274 285
286 290 287 284 285 287 287 287 285 282 278 276 269 265 256 253 246 234 227 226 224 221 219 218 219 217 216 218 219 221 223 225 227 228 230 228 229 231 240 249 259 268 278 288
297 298 290 290 287 285 282 280 279 275 274 273 268 260 252 250 247 240 234 230 227 225 222 222 220 219 220 220 221 221 223 223 225 229 229 229 229 235 242 250 258 269 281 290
315 308 297 293 290 286 280 277 274 272 270 269 267 263 258 256 251 246 244 236 232 228 224 222 221 224 224 225 226 227 227 228 229 229 230 229 228 234 244 250 259 271 281 291
324 323 318 314 304 292 283 277 272 269 266 262 260 259 259 253 249 249 248 240 233 232 230 226 228 228 227 228 230 231 229 226 227 227 228 228 228 235 244 251 260 273 284 292
332 337 338 335 330 315 295 278 269 265 263 260 259 257 255 251 247 245 244 239 235 231 226 227 227 224 225 226 227 228 226 226 224 225 227 229 229 236 245 253 261 273 283 293
332 335 337 338 338 334 325 304 280 265 258 255 253 250 249 245 243 239 236 230 229 224 224 222 218 220 221 221 221 222 221 220 222 224 225 228 232 239 248 257 266 275 285 294
333 338 342 346 348 347 343 337 316 284 263 254 247 243 241 236 231 227 221 222 221 219 217 215 213 213 214 212 213 215 215 217 218 220 224 228 235 242 251 259 268 279 289 296
333 339 345 349 352 354 354 353 349 336 300 264 248 237 232 228 222 218 214 213 216 214 207 206 206 208 212 213 213 215 214 216 217 221 224 230 238 246 254 264 274 284 292 300
326 332 338 346 352 357 0 1 0 357 347 329 271 236 221 218 219 219 216 215 217 212 210 209 208 209 213 211 213 215 214 215 219 223 227 234 241 251 262 273 281 288 295 301
316 323 329 337 343 349 356 0 5 5 2 352 335 241 214 215 215 214 212 214 215 213 214 213 213 212 211 210 213 213 215 216 220 224 231 239 249 259 269 278 285 290 295 301
303 308 315 323 329 334 341 350 356 359 2 360 344 293 233 219 219 216 216 214 212 215 214 214 211 211 211 213 214 214 216 220 224 228 236 247 258 267 274 281 287 293 299 303
292 295 300 305 310 316 323 329 334 340 344 345 350 338 267 230 213 207 207 204 205 206 208 211 213 211 211 213 216 218 220 226 235 241 248 257 264 273 279 285 290 295 299 303
287 287 288 291 294 297 301 304 307 312 316 319 316 310 304 225 202 204 200 207 203 203 208 212 212 212 217 219 222 226 231 237 243 249 255 263 270 277 282 287 291 295 299 302
283 282 284 285 285 285 287 288 287 288 289 287 286 280 267 251 240 233 227 219 217 219 222 222 220 220 224 228 231 236 240 246 250 254 261 267 274 279 284 289 292 295 298 301
283 282 280 279 282 282 280 278 277 278 276 274 269 269 264 258 254 248 243 238 235 235 235 234 234 234 235 238 240 243 247 251 256 261 267 272 278 283 286 290 292 295 297 300